| time (UTC) | temp F | wind direction | speed MPH | gust MPH | rain 1hr in | rain 24hr in | rain mn in | humidity % | barometer mb |
| 20260831163039 | 75 | 122 | 3.0 | 7.0 | 0.00 | 0.00 | 0.00 | 52 | 1020.6 |
| 20260831161536 | 74 | 140 | 0.0 | 6.0 | 0.00 | 0.00 | 0.00 | 51 | 1020.7 |
| 20260831160033 | 73 | 173 | 1.0 | 5.0 | 0.00 | 0.00 | 0.00 | 54 | 1020.8 |
| 20260831154537 | 73 | 231 | 1.0 | 7.0 | 0.00 | 0.00 | 0.00 | 56 | 1020.8 |
| 20260831153037 | 73 | 139 | 0.0 | 1.0 | 0.00 | 0.00 | 0.00 | 56 | 1020.9 |
| 20260831151529 | 72 | 114 | 2.0 | 5.0 | 0.00 | 0.00 | 0.00 | 56 | 1021.0 |
| 20260831150024 | 71 | 134 | 0.0 | 4.0 | 0.00 | 0.00 | 0.00 | 61 | 1021.1 |
| 20260831144520 | 69 | 124 | 0.0 | 3.0 | 0.00 | 0.00 | 0.00 | 63 | 1021.3 |
| 20260831143017 | 68 | 116 | 0.0 | 4.0 | 0.00 | 0.00 | 0.00 | 67 | 1021.3 |
| 20260831141513 | 67 | 5 | 0.0 | 0.0 | 0.00 | 0.00 | 0.00 | 67 | 1021.4 |
| 20260831140009 | 66 | 242 | 0.0 | 0.0 | 0.00 | 0.00 | 0.00 | 71 | 1021.3 |
| 20260831134505 | 64 | 297 | 0.0 | 0.0 | 0.00 | 0.00 | 0.00 | 73 | 1021.2 |
| 20260831133005 | 63 | 141 | 0.0 | 0.0 | 0.00 | 0.00 | 0.00 | 76 | 1021.2 |
| 20260831131503 | 62 | 131 | 0.0 | 0.0 | 0.00 | 0.00 | 0.00 | 78 | 1021.2 |
| 20260831130106 | 61 | 315 | 0.0 | 0.0 | 0.00 | 0.00 | 0.00 | 80 | 1021.2 |
| 20260831124603 | 60 | 315 | 0.0 | 0.0 | 0.00 | 0.00 | 0.00 | 81 | 1021.1 |
| 20260831123057 | 59 | 315 | 0.0 | 0.0 | 0.00 | 0.00 | 0.00 | 83 | 1021.0 |
| 20260831121553 | 59 | 315 | 0.0 | 0.0 | 0.00 | 0.00 | 0.00 | 84 | 1021.0 |
| 20260831120051 | 58 | 315 | 0.0 | 0.0 | 0.00 | 0.00 | 0.00 | 85 | 1020.8 |
| 20260831114555 | 57 | 311 | 0.0 | 0.0 | 0.00 | 0.00 | 0.00 | 86 | 1020.7 |
| 20260831113046 | 56 | 1 | 0.0 | 0.0 | 0.00 | 0.00 | 0.00 | 88 | 1020.6 |
| 20260831111552 | 56 | 360 | 0.0 | 0.0 | 0.00 | 0.00 | 0.00 | 89 | 1020.5 |
| 20260831110041 | 55 | 359 | 0.0 | 0.0 | 0.00 | 0.00 | 0.00 | 90 | 1020.5 |
| 20260831104544 | 55 | 54 | 0.0 | 0.0 | 0.00 | 0.00 | 0.00 | 90 | 1020.4 |
| 20260831103037 | 55 | 54 | 0.0 | 0.0 | 0.00 | 0.00 | 0.00 | 91 | 1020.2 |
| 20260831101535 | 54 | 54 | 0.0 | 0.0 | 0.00 | 0.00 | 0.00 | 91 | 1020.2 |
| 20260831100040 | 54 | 53 | 0.0 | 0.0 | 0.00 | 0.00 | 0.00 | 90 | 1020.0 |
| 20260831094528 | 55 | 53 | 0.0 | 0.0 | 0.00 | 0.00 | 0.00 | 89 | 1019.9 |
| 20260831093027 | 56 | 53 | 0.0 | 0.0 | 0.00 | 0.00 | 0.00 | 89 | 1019.8 |
| 20260831091525 | 55 | 54 | 0.0 | 0.0 | 0.00 | 0.00 | 0.00 | 89 | 1019.6 |
| 20260831090023 | 56 | 54 | 0.0 | 0.0 | 0.00 | 0.00 | 0.00 | 89 | 1019.5 |
| 20260831084520 | 56 | 54 | 0.0 | 0.0 | 0.00 | 0.00 | 0.00 | 89 | 1019.3 |
| 20260831083019 | 56 | 54 | 0.0 | 0.0 | 0.00 | 0.00 | 0.00 | 90 | 1019.3 |
| 20260831081519 | 56 | 54 | 0.0 | 0.0 | 0.00 | 0.00 | 0.00 | 90 | 1019.2 |
| 20260831080016 | 56 | 54 | 0.0 | 0.0 | 0.00 | 0.00 | 0.00 | 90 | 1019.2 |
| 20260831074515 | 56 | 54 | 0.0 | 0.0 | 0.00 | 0.00 | 0.00 | 90 | 1019.0 |
| 20260831073016 | 56 | 54 | 0.0 | 0.0 | 0.00 | 0.00 | 0.00 | 92 | 1018.8 |
| 20260831071516 | 57 | 54 | 0.0 | 0.0 | 0.00 | 0.00 | 0.00 | 92 | 1018.7 |
| 20260831070009 | 57 | 54 | 0.0 | 0.0 | 0.00 | 0.00 | 0.00 | 93 | 1018.6 |
| 20260831064505 | 58 | 53 | 0.0 | 0.0 | 0.00 | 0.00 | 0.00 | 93 | 1018.5 |
| 20260831063003 | 58 | 54 | 0.0 | 0.0 | 0.00 | 0.00 | 0.00 | 92 | 1018.5 |
| 20260831061502 | 59 | 53 | 0.0 | 0.0 | 0.00 | 0.00 | 0.00 | 92 | 1018.5 |
| 20260831060104 | 59 | 54 | 0.0 | 0.0 | 0.00 | 0.00 | 0.00 | 93 | 1018.4 |
| 20260831054557 | 59 | 54 | 0.0 | 0.0 | 0.00 | 0.00 | 0.00 | 94 | 1018.4 |
| 20260831053112 | 60 | 120 | 0.0 | 0.0 | 0.00 | 0.00 | 0.00 | 94 | 1018.4 |
| 20260831051552 | 60 | 120 | 0.0 | 0.0 | 0.00 | 0.00 | 0.00 | 93 | 1018.2 |
| 20260831050107 | 60 | 120 | 0.0 | 0.0 | 0.00 | 0.00 | 0.00 | 92 | 1018.1 |
| 20260831044549 | 61 | 120 | 0.0 | 0.0 | 0.00 | 0.00 | 0.00 | 92 | 1018.0 |
| 20260831043050 | 62 | 120 | 0.0 | 0.0 | 0.00 | 0.00 | 0.00 | 91 | 1017.8 |
| 20260831041553 | 63 | 120 | 0.0 | 0.0 | 0.00 | 0.00 | 0.00 | 90 | 1017.9 |
| 20260831040038 | 63 | 289 | 0.0 | 0.0 | 0.00 | 0.00 | 0.00 | 90 | 1018.0 |
| 20260831034540 | 64 | 290 | 0.0 | 0.0 | 0.00 | 0.00 | 0.00 | 90 | 1017.8 |
| 20260831033040 | 64 | 235 | 0.0 | 0.0 | 0.00 | 0.00 | 0.00 | 90 | 1017.9 |
| 20260831031546 | 64 | 235 | 0.0 | 0.0 | 0.00 | 0.00 | 0.00 | 90 | 1018.0 |
| 20260831030036 | 65 | 235 | 0.0 | 0.0 | 0.00 | 0.00 | 0.00 | 87 | 1017.9 |
| 20260831024536 | 66 | 235 | 0.0 | 0.0 | 0.00 | 0.00 | 0.00 | 86 | 1017.8 |
| 20260831023035 | 66 | 290 | 0.0 | 0.0 | 0.00 | 0.00 | 0.00 | 86 | 1017.8 |
| 20260831021535 | 66 | 274 | 0.0 | 0.0 | 0.00 | 0.00 | 0.00 | 87 | 1017.7 |
| 20260831020034 | 66 | 266 | 0.0 | 0.0 | 0.00 | 0.00 | 0.00 | 87 | 1017.7 |
| 20260831014537 | 67 | 124 | 0.0 | 2.0 | 0.00 | 0.00 | 0.00 | 84 | 1017.5 |
| 20260831013041 | 69 | 307 | 0.0 | 5.0 | 0.00 | 0.00 | 0.00 | 77 | 1017.6 |
| 20260831011531 | 70 | 273 | 0.0 | 1.0 | 0.00 | 0.00 | 0.00 | 75 | 1017.2 |
| 20260831010029 | 69 | 212 | 0.0 | 0.0 | 0.00 | 0.00 | 0.00 | 75 | 1017.0 |
| 20260831004529 | 69 | 232 | 0.0 | 0.0 | 0.00 | 0.00 | 0.00 | 75 | 1016.7 |
| 20260831003028 | 70 | 271 | 0.0 | 3.0 | 0.00 | 0.00 | 0.00 | 74 | 1016.7 |
| 20260831001535 | 70 | 285 | 0.0 | 5.0 | 0.00 | 0.00 | 0.00 | 73 | 1016.3 |
| 20260831000028 | 70 | 143 | 1.0 | 4.0 | 0.00 | 0.00 | 0.00 | 72 | 1016.1 |
| 20260830234528 | 70 | 229 | 1.0 | 7.0 | 0.00 | 0.00 | 0.00 | 72 | 1015.8 |
| 20260830233028 | 71 | 150 | 2.0 | 7.0 | 0.00 | 0.00 | 0.00 | 70 | 1015.8 |
| 20260830231526 | 71 | 239 | 2.0 | 8.0 | 0.00 | 0.00 | 0.00 | 68 | 1016.0 |
| 20260830230028 | 71 | 102 | 1.0 | 6.0 | 0.00 | 0.00 | 0.00 | 68 | 1015.9 |
| 20260830224524 | 72 | 172 | 2.0 | 8.0 | 0.00 | 0.00 | 0.00 | 67 | 1016.1 |
| 20260830223026 | 72 | 146 | 1.0 | 5.0 | 0.00 | 0.00 | 0.00 | 67 | 1016.1 |
| 20260830221522 | 73 | 207 | 1.0 | 7.0 | 0.00 | 0.00 | 0.00 | 65 | 1016.4 |
| 20260830220022 | 73 | 226 | 1.0 | 8.0 | 0.00 | 0.00 | 0.00 | 65 | 1016.2 |
| 20260830214522 | 73 | 127 | 2.0 | 5.0 | 0.00 | 0.00 | 0.00 | 65 | 1016.3 |
| 20260830213020 | 74 | 150 | 1.0 | 6.0 | 0.00 | 0.00 | 0.00 | 63 | 1016.3 |
| 20260830211520 | 74 | 146 | 0.0 | 3.0 | 0.00 | 0.00 | 0.00 | 65 | 1016.4 |
| 20260830210017 | 74 | 149 | 1.0 | 3.0 | 0.00 | 0.00 | 0.00 | 63 | 1016.5 |
| 20260830204517 | 75 | 274 | 0.0 | 5.0 | 0.00 | 0.00 | 0.00 | 60 | 1016.5 |
| 20260830203023 | 76 | 203 | 1.0 | 8.0 | 0.00 | 0.00 | 0.00 | 57 | 1016.7 |
| 20260830201515 | 77 | 203 | 0.0 | 6.0 | 0.00 | 0.00 | 0.00 | 54 | 1016.7 |
| 20260830200012 | 77 | 120 | 0.0 | 5.0 | 0.00 | 0.00 | 0.00 | 55 | 1017.0 |
| 20260830194511 | 77 | 143 | 1.0 | 4.0 | 0.00 | 0.00 | 0.00 | 56 | 1017.2 |
| 20260830193007 | 76 | 158 | 1.0 | 7.0 | 0.00 | 0.00 | 0.00 | 59 | 1017.3 |
| 20260830191505 | 75 | 143 | 0.0 | 0.0 | 0.00 | 0.00 | 0.00 | 63 | 1017.5 |
| 20260830190003 | 75 | 186 | 0.0 | 3.0 | 0.00 | 0.00 | 0.00 | 59 | 1017.8 |
| 20260830184502 | 76 | 160 | 0.0 | 5.0 | 0.00 | 0.00 | 0.00 | 59 | 1017.9 |
| 20260830183116 | 76 | 237 | 1.0 | 4.0 | 0.00 | 0.00 | 0.00 | 59 | 1018.0 |
| 20260830181558 | 76 | 201 | 0.0 | 6.0 | 0.00 | 0.00 | 0.00 | 61 | 1018.2 |
| 20260830180056 | 75 | 167 | 1.0 | 5.0 | 0.00 | 0.00 | 0.00 | 62 | 1018.4 |
| 20260830174557 | 75 | 243 | 0.0 | 2.0 | 0.00 | 0.00 | 0.00 | 63 | 1018.6 |
| 20260830173109 | 75 | 253 | 2.0 | 6.0 | 0.00 | 0.00 | 0.00 | 61 | 1018.7 |
| 20260830171551 | 74 | 163 | 0.0 | 8.0 | 0.00 | 0.00 | 0.00 | 63 | 1018.9 |
| 20260830170054 | 74 | 170 | 1.0 | 8.0 | 0.00 | 0.00 | 0.00 | 64 | 1019.0 |
| 20260830164552 | 74 | 146 | 2.0 | 10.0 | 0.00 | 0.00 | 0.00 | 65 | 1019.2 |